This demonstration page uses our WeatherBlox Daily Observations layout. Learn more.

Left ArrowRight Arrow

Hourly Observations for January 8, 2020

Temp ( °F °C ) Dew Point ( °F °C ) Humidity (%) Winds ( mph kmh ) Pressure ( in mb ) Visibility ( mi km ) Precip ( " mm )
12:53 am 00:53 Clear 25 -3.9 22 -5.6 88 88 E 5 7 29.70 1006 10 16 0.00 0.00
1:53 am 01:53 Clear 24 -4.4 22 -5.6 91 91 E 9 15 29.66 1004 10 16 0.00 0.00
2:53 am 02:53 Clear 24 -4.4 22 -5.6 91 91 E 8 13 29.64 1004 10 16 0.00 0.00
3:53 am 03:53 Mostly Clear 23 -5 21 -6.1 92 92 NNE 3 6 29.63 1003 10 16 0.00 0.00
4:10 am 04:10 Mostly Cloudy 21 -6.1 20 -6.7 96 96 N 3 6 29.70 1006 10 16 0.00 0.00
4:53 am 04:53 Cloudy 21 -6.1 19 -7.2 92 92 E 8 13 29.61 1003 10 16 0.00 0.00
5:29 am 05:29 Cloudy with Mist and Fog 22 -5.6 21 -6.1 96 96 E 9 15 29.65 1004 2 3 0.00 0.00
5:41 am 05:41 Mostly Cloudy with Mist and Fog 22 -5.6 21 -6.1 96 96 E 8 13 29.64 1004 1 2 0.00 0.00
5:53 am 05:53 Mostly Cloudy with Mist and Fog 22 -5.6 21 -6.1 96 96 E 8 13 29.57 1001 1 2 0.00 0.00
6:40 am 06:40 Mostly Cloudy with Mist and Fog 19 -7 19 -7 100 100 E 8 13 29.62 1003 1 1 0.00 0.00
6:46 am 06:46 Cloudy with Mist and Fog 20 -6.7 18 -7.8 92 92 E 8 13 29.62 1003 2 2 0.00 0.00
6:50 am 06:50 Cloudy with Mist and Fog 19 -7 18 -8 93 93 E 6 9 29.62 1003 3 5 0.00 0.00
6:53 am 06:53 Cloudy with Mist and Fog 20 -6.7 18 -7.8 92 92 E 8 13 29.54 1000 2 3 0.00 0.00
6:55 am 06:55 Cloudy with Mist and Fog 20 -6.7 18 -7.8 92 92 E 7 11 29.62 1003 1 2 0.00 0.00
7:15 am 07:15 Cloudy with Mist and Fog 20 -6.7 18 -7.8 92 92 Calm 29.60 1002 2 2 0.00 0.00
7:26 am 07:26 Cloudy with Mist and Fog 19 -7 18 -8 93 93 Calm 29.60 1002 3 4 0.00 0.00
7:33 am 07:33 Cloudy with Mist and Fog 20 -6.7 19 -7.2 96 96 Calm 29.60 1002 1 2 0.00 0.00
7:43 am 07:43 Mostly Cloudy with Mist and Fog 20 -6.7 19 -7.2 96 96 Calm 29.60 1002 1 1 0.00 0.00
7:51 am 07:51 Mostly Cloudy with Mist and Fog 19 -7 19 -7 100 100 Calm 29.60 1002 1 2 0.00 0.00
7:53 am 07:53 Cloudy with Mist and Fog 20 -6.7 19 -7.2 96 96 Calm 29.52 1000 1 2 0.00 0.00
7:57 am 07:57 Cloudy with Mist and Fog 20 -6.7 19 -7.2 96 96 Calm 29.60 1002 2 3 0.00 0.00
8:07 am 08:07 Mostly Cloudy 19 -7.2 17 -8.3 92 92 W 3 6 29.61 1003 7 11 0.00 0.00
8:16 am 08:16 Partly Cloudy 19 -7.2 17 -8.3 92 92 W 3 6 29.61 1003 10 16 0.00 0.00
8:53 am 08:53 Sunny 19 -7.2 17 -8.3 92 92 SSW 5 7 29.51 999 10 16 0.00 0.00
9:53 am 09:53 Mostly Sunny 30 -1.1 26 -3.3 85 85 SW 21 33 29.45 997 10 16 0.00 0.00
10:53 am 10:53 Sunny 41 5 28 -2.2 60 60 SW 23 37 29.42 996 10 16 0.00 0.00
11:53 am 11:53 Mostly Cloudy 42 5.6 29 -1.7 60 60 SW 23 37 29.41 996 10 16 0.00 0.00
12:53 pm 12:53 Cloudy 41 5 30 -1.1 65 65 SSW 18 30 29.41 996 10 16 0.00 0.00
1:53 pm 13:53 Cloudy 40 4.4 30 -1.1 68 68 WSW 12 19 29.43 997 10 16 0.00 0.00
2:41 pm 14:41 Cloudy 40 4.4 29 -1.7 65 65 WSW 20 31 29.43 997 10 16 0.00 0.00
2:53 pm 14:53 Cloudy 40 4.4 29 -1.7 65 65 WSW 18 30 29.44 997 10 16 0.00 0.00
3:16 pm 15:16 Cloudy 40 4.4 28 -2.2 63 63 W 16 26 29.44 997 10 16 0.00 0.00
3:53 pm 15:53 Mostly Cloudy 32 0 26 -3.3 79 79 NW 14 22 29.52 1000 10 16 0.00 0.00
4:53 pm 16:53 Partly Cloudy 23 -5 18 -7.8 81 81 NW 10 17 29.62 1003 10 16 0.00 0.00
5:07 pm 17:07 Mostly Cloudy 22 -5.6 17 -8.3 82 82 NNW 17 28 29.69 1005 10 16 0.00 0.00
5:48 pm 17:48 Partly Cloudy 19 -7 14 -10 79 79 NW 16 26 29.73 1007 10 16 0.00 0.00
5:53 pm 17:53 Partly Cloudy 20 -6.7 14 -10 78 78 NW 16 26 29.67 1005 10 16 0.00 0.00
6:53 pm 18:53 Mostly Clear 18 -7.8 13 -10.6 81 81 NW 18 30 29.70 1006 10 16 0.00 0.00
7:53 pm 19:53 Cloudy 17 -8.3 11 -11.7 77 77 NW 14 22 29.75 1007 10 16 0.00 0.00
8:01 pm 20:01 Cloudy 17 -8.3 11 -11.7 77 77 NW 14 22 29.83 1010 10 16 0.00 0.00
8:53 pm 20:53 Cloudy with Light Snow 15 -9.4 10 -12.2 80 80 NW 9 15 29.79 1009 6 10 0.00 0.00
9:09 pm 21:09 Cloudy with Light Snow 15 -9.4 9 -12.8 77 77 NW 16 26 29.87 1012 3 4 0.00 0.00
9:17 pm 21:17 Cloudy with Light Snow 16 -8.9 10 -12.2 77 77 WNW 9 15 29.87 1011 8 13 0.00 0.00
9:53 pm 21:53 Cloudy with Light Snow 14 -10 9 -12.8 80 80 WNW 10 17 29.79 1009 7 11 0.00 0.00
10:05 pm 22:05 Cloudy 14 -10 8 -13.3 77 77 WNW 9 15 29.90 1012 8 13 0.00 0.00
10:42 pm 22:42 Cloudy 14 -10 8 -13.3 77 77 WNW 13 20 29.91 1013 10 16 0.00 0.00
10:50 pm 22:50 Cloudy 14 -10 9 -13 79 79 WNW 10 17 29.93 1014 10 16 0.00 0.00
10:53 pm 22:53 Cloudy 14 -10 8 -13.3 77 77 W 10 17 29.80 1009 10 16 0.00 0.00
11:30 pm 23:30 Cloudy 14 -10 8 -13.3 77 77 WNW 13 20 29.93 1014 10 16 0.00 0.00
11:53 pm 23:53 Cloudy 14 -10 8 -13.3 77 77 WNW 12 19 29.81 1010 10 16 0.00 0.00

Powered by AerisWeather